Tracking 32954 objects as of 18-Jan-2026
HD Live streaming from Space Station
objects crossing your sky now

FREGAT DEB

Track FREGAT DEB now!
10-day predictions


NORAD ID: 45822
Int'l Code: 2011-037BG
Perigee: 522.6 km
Apogee: 2,179.9 km
Inclination: 51.3 °
Period: 112.6 minutes
Semi major axis: 7722 km
RCS: Unknown
Launch date: July 18, 2011
Source: Commonwealth of Independent States (former USSR) (CIS)
Launch site: TYURATAM MISSILE AND SPACE COMPLEX (TTMTR)

Note: This is SATELLITE DEBRIS
Your satellite tracking list
Your tracking list is empty




NASA's NSSDC Master Catalog

Two Line Element Set (TLE):
1 45822U 11037BG  26017.33343216  .00045735  00000-0  14633-1 0  9996
2 45822  51.3437  70.5036 1073075  31.4586 334.6143 12.79338347243311
Source of the keplerian elements: AFSPC